Location: Kmicica-DOM
(53.1202°N, 23.2052°E)
Time: 03:24:34
(UTC+02:00)

USA 276 - Pass Details

Date: 12 August 2022
Orbit: 366 x 369 km, 50.0° (Epoch: 12 July)

Event Time Altitude Azimuth Distance (km) Brightness Sun altitude
Exits shadow 03:17:42 - 160° (SSE) 1,390 4.6 -13.2°
Reaches altitude 10° 03:18:18 10° 149° (SSE) 1,346 4.6 -13.1°
Maximum altitude 03:18:33 10° 144° (SE) 1,342 4.7 -13.1°
Drops below altitude 10° 03:18:48 10° 139° (SE) 1,347 4.7 -13.1°
Sets 03:22:36 0° 90° (E) 2,200 6.6 -12.7°
